Regional Weather Roundup
Issued by NWS Grand Forks, ND

Home | Current Version | Previous Version | Text Only | Print | Product List | Glossary On
Versions: 1 2 3 4 5 6 7 8 9 10 11 12 13 14 15 16 17 18 19 20 21 22 23 24 25 26 27 28 29 30 31 32 33 34 35 36 37 38 39 40 41 42 43 44 45 46 47 48 49 50
879
ASUS43 KFGF 221510
RWRFGF
PRAIRIE TO PINES  WEATHER ROUNDUP
NATIONAL WEATHER SERVICE EASTERN NORTH DAKOTA/GRAND FORKS ND
900 AM CST THU FEB 22 2018

 **SATELLITE DATA USED TO AUGMENT SKY COVER AT AUTOMATED STATIONS**
 *****  WEATHER ACROSS EASTERN NORTH DAKOTA  *****

CITY           SKY/WX    TMP DP  RH WIND       PRES   REMARKS
GRAND FORKS    FAIR      -1  -6  79 S8        30.44S WCI -15
GRAND FRKS AFB FAIR      -1  -8  74 S9        30.42S WCI -17
GRAND FRKS NWS   N/A      0  -5  80 S6        30.42R WCI -12
DEVILS LAKE    FAIR      -2  -7  79 S3        30.34S
FARGO          FAIR       8   1  73 S14       30.46S WCI  -8
WAHPETON ARPT  FAIR       5   0  78 SE9       30.49S WCI  -9
$$

 ***** WEATHER ACROSS CENTRAL AND WESTERN NORTH DAKOTA  *****

CITY           SKY/WX    TMP DP  RH WIND       PRES   REMARKS
BISMARCK       FAIR      -5  -9  83 CALM      30.33R
MINOT          FAIR      -2  -9  72 SW3       30.26R
JAMESTOWN      FAIR       1  -3  83 S9        30.35R WCI -14
MINOT AFB      FAIR      -7 -13  77 S7        30.26R WCI -22
GARRISON         N/A     -8 -12  83 CALM      30.26S
WILLISTON      FAIR     -10 -15  78 S3        30.25R
DICKINSON      FAIR      -5 -14  65 CALM      30.18R
HETTINGER      FAIR     -18 -22  82 CALM      30.21R
$$

 *****  OTHER AIRPORT OBSERVATIONS IN OUR AREA  *****

CITY           SKY/WX    TMP DP  RH WIND       PRES   REMARKS
WALHALLA       FAIR       1  -4  78 S7        30.37S WCI -11
GRAFTON AIRPOR FAIR      -2  -6  84 S14       30.44F WCI -21
VALLEY CITY AR FAIR       1  -2  85 S9        30.40S WCI -14
CANDO          FAIR      -4  -8  84 S8        30.34S WCI -19
CAVALIER APRT    N/A     -2  -6  84 S13       30.39S WCI -21
GWINNER          N/A      0  -6  78 CALM      30.42R
SHEYENNE NWR     N/A      8   1  72 S8        29.95S WCI  -4
ROLLA          FAIR      -4  -9  77 SW16      30.26S WCI -25
 ***** THE ABOVE OBSERVATIONS ARE NON NWS ARE NOT QUALITY
       CONTROLLED AND MAY MIS-REPORT RAIN FOR SNOW...
$$

  *****  WEATHER ACROSS NORTHERN MINNESOTA  *****

CITY           SKY/WX    TMP DP  RH WIND       PRES   REMARKS
FLAG ISLAND    FAIR      -6  -9  84 SE10      30.45F WCI -23
WARROAD        FAIR       1  -4  78 S7        30.44F WCI -11
ROSEAU         FAIR       1  -4  78 S8        30.43F WCI -12
HALLOCK        FAIR       1  -6  71 S12       30.42S WCI -15
THF RVR FALLS  NOT AVBL
BAUDETTE       FAIR      -3  -8  79 SE7       30.46F WCI -16
WASKISH        FAIR       7   1  78 SE9       30.46F WCI  -7
CROOKSTON      FAIR       5  -2  72 S10       30.46S WCI -10
STEPHEN NDAWN    N/A      7  -2  66 S15         N/A  WCI -11
GREENBUSH NDAW   N/A      0  -6  78 S7          N/A  WCI -13
$$
  *****  WEATHER ACROSS CENTRAL AND WEST MINNESOTA  *****

CITY           SKY/WX    TMP DP  RH WIND       PRES   REMARKS
FOSSTON        FAIR       7  -8  51 S9        30.44R WCI  -7
BEMIDJI        FAIR       2  -2  83 E6        30.44F WCI  -9
PARK RAPIDS    FAIR       3  -1  83 SE9       30.46F WCI -12
ELBOW LAKE     FAIR       9   1  72 E15       30.48S WCI  -8
WADENA         FAIR       3  -2  78 SE5       30.49R WCI  -6
DETROIT LAKES  FAIR       9   0  66 SE9       30.46R WCI  -5
MOORHEAD       FAIR       7   0  72 S15       30.47S WCI -11
FERGUS FALLS   FAIR      10   1  67 S13       30.49R WCI  -5
MORRIS MN      CLOUDY     9   3  78 SE12      30.49F WCI  -6
STAPLES        FAIR       3  -2  78 SE6       30.50S WCI  -8
$$
  *****  WEATHER ELSEWHERE ACROSS MINNESOTA  *****

CITY           SKY/WX    TMP DP  RH WIND       PRES   REMARKS
DULUTH         FAIR       7   2  80 CALM      30.54F
INTRNTL FALLS  FAIR      -3  -7  82 SE5       30.52S WCI -13
ELY            FAIR       0  -6  78 CALM      30.54F
CLOQUET        FAIR       5   0  78 CALM      30.55F
WHEATON        FAIR       7   1  78 SE15      30.49F WCI -11
BRAINERD       FAIR       5  -2  72 SE5       30.53F WCI  -4
HIBBING        FAIR      -7 -10  87 CALM      30.54F
ALEXANDRIA     FAIR       8   1  73 SE12      30.50R WCI  -7
SAINT CLOUD    FAIR       5   1  83 E3        30.57S
MINNEAPOLIS    CLOUDY    17   7  64 E8        30.57F WCI   7
$$

  *****  WEATHER ACROSS SOUTH DAKOTA  *****

CITY           SKY/WX    TMP DP  RH WIND       PRES   REMARKS
SIOUX FALLS    CLOUDY    19  16  88 E6        30.45R WCI  11
BROOKINGS      FLURRIES  17  13  84 SE10      30.44S WCI   5
WATERTOWN      CLOUDY    16  10  77 S10       30.40S WCI   4
HURON          CLOUDY    18  12  77 SE12      30.41S WCI   5
SISSETON         N/A      5   0  79 SE9       30.44F WCI  -9
ABERDEEN       FAIR       4  -2  76 CALM      30.41R
MITCHELL       CLOUDY    19  14  81 SE13      30.42F WCI   6
PIERRE         FAIR       5   3  91 SE7       30.30S WCI  -7
MOBRIDGE       FAIR      -6 -10  83 CALM      30.28R
RAPID CITY     PTSUNNY    1  -4  79 CALM      30.14R
$$

  *****  SOME WEATHER IN NEARBY STATES *****

CITY           SKY/WX    TMP DP  RH WIND       PRES   REMARKS
GLASGOW MT     FAIR     -20 -24  82 SW5       30.22R WCI -33
GREAT FALLS MT FAIR      -2  -9  72 W5        30.10R WCI -12
CHEYENNE WY    CLOUDY    10   5  80 W5        29.95R WCI   2
SCOTTSBLUFF NE CLOUDY    14  11  87 SE6       30.10R WCI   5
OMAHA NE       LGT SNOW  25  20  81 E10       30.41F WCI  15
DES MOINES IA  FLURRIES  26  21  81 E10G17    30.44F WCI  16
DAVENPORT IA   CLOUDY    30  22  72 E16       30.52F WCI  19
CHICAGO IL     PTSUNNY   36  28  73 NE14      30.55S
EAU CLAIRE WI  CLOUDY    12   5  73 NE5       30.60F WCI   4
LA CROSSE WI   CLOUDY    24  16  71 VRB3      30.61F
$$

  *****  SOME NATIONAL WEATHER *****

CITY           SKY/WX    TMP DP  RH WIND       PRES   REMARKS
LA GUARDIA NY  CLOUDY    46  36  68 NE12      30.60R
RALEIGH NC     CLOUDY    68  63  84 SW13      30.48R
ATLANTA GA     PTSUNNY   68  65  90 SE5       30.46R
NEW ORLEANS LA FAIR      77  73  87 SE9       30.30R
OKLAHOMA CITY  CLOUDY    29  28  96 NE8       30.27F FOG     WCI  21
ALBUQUERQUE NM PTSUNNY   32  20  61 NE6       30.05R
SALT LAKE CITY MOCLDY    25  14  63 S10       29.98S WCI  15
LOS ANGELES CA MOCLDY    46  31  55 NE6       30.21R
BOISE ID       LGT SNOW  24  22  91 W9        29.95R VSB 1   WCI  14
SEATTLE WA     MOCLDY    28  22  78 N13       30.24R WCI  17
$$

*** WEATHER ACROSS MANITOBA...SASKATCHEWAN AND ONTARIO ***
                ***ONTARIO***

CITY           SKY/WX    TMP DP  RH WIND       PRES   REMARKS
GERALDTON      PTSUNNY    5   1  85 SW9       30.57S WCI  -9
THUNDER BAY    MOSUNNY    3   0  85 NW2       30.65F
SIOUX LOOKOUT  MOSUNNY   -2  -8  78 S8        30.49S WCI -17
TORONTO        CLOUDY    30  21  69 E8        30.65S WCI  23
BIG TROUT LK   SUNNY     -8 -15  71 SW7       30.30F WCI -22
PICKLE LAKE    MOSUNNY    0  -6  78 SW6       30.43S WCI -12
DRYDEN         SUNNY      0  -6  78 S9        30.47S WCI -16
KENORA         SUNNY      1  -4  78 S10G17    30.43S WCI -14
$$
                *** MANITOBA***

CITY           SKY/WX    TMP DP  RH WIND       PRES   REMARKS
BRANDON        SUNNY    -13 -18  77 W3        30.28R
DAUPHIN        SUNNY      0  -8  71 W8        30.24F WCI -15
ISLAND LAKE    MOSUNNY   -4 -11  71 S7        30.18F WCI -18
PILOT MOUND      N/A     -4  -9  77 S12         N/A  WCI -22
THE PAS        MOCLDY     5  -8  56 S10       30.03S WCI -10
THOMPSON       PTCLDY    -4 -11  71 SW9       29.89S WCI -20
WINNIPEG       SUNNY      1  -4  78 S12       30.39S WCI -15
LYNN LAKE      MOCLDY     3  -2  78 SW14      29.73S WCI -15
CHURCHILL      MOCLDY    -2 -11  65 SW17G23   29.69F WCI -24
GILLAM         MOSUNNY   -4 -13  65 S18G26    29.88F WCI -26
$$
                ***SASKATCHEWAN***

CITY           SKY/WX    TMP DP  RH WIND       PRES   REMARKS
ESTEVAN        SUNNY     -4 -11  71 SW8       30.21R WCI -19
KINDERSLEY     MOCLDY   -11 -17  77 SW8       30.13R WCI -28
LLOYDMINSTER   MOCLDY     7   3  85 W13       30.08R WCI  -9
PRINCE ALBERT  MOCLDY    -8 -13  77 SW7       30.11R WCI -22
REGINA         MOCLDY   -13 -18  77 SE6       30.18R WCI -27
YORKTON        CLEAR     -6 -11  77 S12       30.16R WCI -24
N. BATTLEFORD  MOCLDY    -6 -11  77 SW5       30.14R WCI -17
LA RONGE       PTCLDY     7   0  72 SW9       29.97R WCI  -7
SASKATOON      PTCLDY   -13 -18  77 SW9       30.15R WCI -31
SWIFT CURRENT  PTCLDY    -2 -11  65 W14       30.09R WCI -21
$$
NOTE: THESE ARE AUTOMATED STATIONS WITH LIMITED QUALITY CONTROL
      "FAIR" INDICATES FEW OR NO CLOUDS BELOW 12,000 FEET WITH NO
      SIGNIFICANT WEATHER AND/OR OBSTRUCTIONS TO VISIBILITY.
      SKY/WX - SKY CONDITION AND SIGNIFICANT WEATHER.
      TMP - AIR TEMPERATURE.    DP   - DEWPOINT TEMPERATURE.
      RH  - RELATIVE HUMIDITY.  PRES - PRESSURE.
      HX  - HEAT INDEX.         WCI  - WIND CHILL INDEX.
$




USA.gov is the U.S. government's official web portal to all federal, state and local government web resources and services.